This is the latest recevied weather packets stored in our database for station/object W5LND-10. If no packets are shown the sender has not sent any weather packets the latest 1 day(s).
| Time | Temp. | Humidity | Pressure | Rain* | Wind** | Luminosity | Snow |
|---|---|---|---|---|---|---|---|
| 1777981270 | 19.44° C | 78% | 1001 hPa | 0 mm | 4.02 m/s, 232° | 0 W/m² | - |
| 1777980970 | 19.44° C | 78% | 1000.9 hPa | 0 mm | 4.02 m/s, 261° | 0 W/m² | - |
| 1777980670 | 19.44° C | 78% | 1001 hPa | 0 mm | 4.02 m/s, 255° | 0 W/m² | - |
| 1777980370 | 19.44° C | 77% | 1001 hPa | 0 mm | 4.02 m/s, 242° | 0 W/m² | - |
| 1777980070 | 19.44° C | 77% | 1001 hPa | 0 mm | 4.02 m/s, 256° | 0 W/m² | - |
| 1777979771 | 19.44° C | 77% | 1000.9 hPa | 0 mm | 4.02 m/s, 251° | 0 W/m² | - |
| 1777979471 | 19.44° C | 77% | 1000.8 hPa | 0 mm | 4.47 m/s, 236° | 0 W/m² | - |
| 1777979171 | 19.44° C | 77% | 1000.9 hPa | 0 mm | 4.47 m/s, 279° | 0 W/m² | - |
| 1777978871 | 20° C | 76% | 1000.8 hPa | 0 mm | 4.47 m/s, 268° | 0 W/m² | - |
| 1777978571 | 20° C | 76% | 1000.7 hPa | 0 mm | 4.47 m/s, 248° | 0 W/m² | - |
| 1777978271 | 20° C | 76% | 1000.7 hPa | 0 mm | 4.47 m/s, 245° | 0 W/m² | - |
| 1777977971 | 20° C | 76% | 1000.8 hPa | 0 mm | 4.47 m/s, 251° | 0 W/m² | - |
| 1777977671 | 20° C | 77% | 1000.7 hPa | 0 mm | 4.92 m/s, 244° | 0 W/m² | - |
| 1777977371 | 19.44° C | 77% | 1000.6 hPa | 0 mm | 4.92 m/s, 248° | 0 W/m² | - |
| 1777977148 | 19.44° C | 77% | 1000.7 hPa | 0 mm | 5.36 m/s, 242° | 0 W/m² | - |
| 1777977071 | 19.44° C | 77% | 1000.7 hPa | 0 mm | 5.36 m/s, 242° | 0 W/m² | - |
| 1777976771 | 19.44° C | 77% | 1000.7 hPa | 0 mm | 4.92 m/s, 243° | 0 W/m² | - |
| 1777976471 | 19.44° C | 77% | 1000.5 hPa | 0 mm | 4.92 m/s, 262° | 0 W/m² | - |
| 1777976171 | 19.44° C | 77% | 1000.6 hPa | 0 mm | 4.47 m/s, 246° | 0 W/m² | - |
| 1777975871 | 19.44° C | 77% | 1000.6 hPa | 0 mm | 4.47 m/s, 225° | 0 W/m² | - |
| 1777975571 | 19.44° C | 76% | 1000.6 hPa | 0 mm | 4.02 m/s, 241° | 0 W/m² | - |
| 1777975271 | 19.44° C | 76% | 1000.5 hPa | 0 mm | 4.02 m/s, 238° | 0 W/m² | - |
| 1777974971 | 19.44° C | 76% | 1000.4 hPa | 0 mm | 4.02 m/s, 241° | 0 W/m² | - |
| 1777974671 | 19.44° C | 76% | 1000.2 hPa | 0 mm | 4.47 m/s, 249° | 0 W/m² | - |
| 1777974371 | 19.44° C | 76% | 1000.3 hPa | 0 mm | 4.47 m/s, 249° | 0 W/m² | - |
* Rain latest hour (hover to see other rain measurements)
** Current wind speed in m/s (hover to see current wind gust speed)